• In Austria
  • List of Countries
  • For 7 days
  • Water Temperature
  • Satellite Maps
  • Weather Map
  • News
  • Weather Widgets
  • user-avatar
    Login

    Hourly Weather Chechel'nyk

    Today, 20 October, Saturday

    Time Temperature Precipitation Wind Pressure Humidity
    00:00 +13°C° 0 mm 2 mps 738 mmHg 82%
    01:00 +13°C° 0 mm 2 mps 739 mmHg 84%
    02:00 +12°C° 0 mm 2 mps 739 mmHg 86%
    03:00 +11°C° 0 mm 3 mps 739 mmHg 87%
    04:00 +11°C° 0 mm 3 mps 739 mmHg 88%
    05:00 +11°C° 0 mm 3 mps 739 mmHg 89%
    06:00 +11°C° 0.1 mm 3 mps 739 mmHg 88%
    07:00 +11°C° 0.1 mm 3 mps 739 mmHg 86%
    08:00 +11°C° 0.1 mm 4 mps 740 mmHg 85%
    09:00 +12°C° 0 mm 4 mps 740 mmHg 80%
    10:00 +13°C° 0 mm 4 mps 740 mmHg 74%
    11:00 +15°C° 0 mm 4 mps 740 mmHg 69%
    12:00 +15°C° 0 mm 4 mps 740 mmHg 66%
    13:00 +17°C° 0 mm 4 mps 740 mmHg 62%
    14:00 +18°C° 0 mm 4 mps 739 mmHg 59%
    15:00 +17°C° 0 mm 3 mps 739 mmHg 63%
    16:00 +16°C° 0 mm 3 mps 739 mmHg 66%
    17:00 +15°C° 0 mm 2 mps 739 mmHg 69%
    18:00 +14°C° 0 mm 2 mps 739 mmHg 73%
    19:00 +12°C° 0 mm 3 mps 739 mmHg 77%
    20:00 +11°C° 0 mm 3 mps 739 mmHg 81%
    21:00 +11°C° 0 mm 3 mps 739 mmHg 82%
    22:00 +12°C° 0 mm 2 mps 739 mmHg 83%
    23:00 +12°C° 0 mm 2 mps 739 mmHg 85%

    Tomorrow, 21 October, Sunday

    Time Temperature Precipitation Wind Pressure Humidity
    00:00 +12°C° 0 mm 2 mps 739 mmHg 85%
    01:00 +10°C° 0 mm 2 mps 739 mmHg 85%
    02:00 +10°C° 0 mm 2 mps 739 mmHg 86%
    03:00 +10°C° 0 mm 2 mps 739 mmHg 87%
    04:00 +10°C° 0 mm 2 mps 739 mmHg 88%
    05:00 +10°C° 0 mm 2 mps 739 mmHg 90%
    06:00 +10°C° 0 mm 3 mps 739 mmHg 88%
    07:00 +10°C° 0 mm 3 mps 740 mmHg 87%
    08:00 +10°C° 0 mm 3 mps 740 mmHg 85%
    09:00 +11°C° 0 mm 3 mps 740 mmHg 79%
    10:00 +12°C° 0 mm 3 mps 740 mmHg 72%
    11:00 +13°C° 0 mm 4 mps 741 mmHg 65%
    12:00 +14°C° 0 mm 4 mps 741 mmHg 62%
    13:00 +14°C° 0 mm 4 mps 741 mmHg 60%
    14:00 +15°C° 0 mm 4 mps 740 mmHg 57%
    15:00 +14°C° 0 mm 3 mps 740 mmHg 59%
    16:00 +13°C° 0 mm 3 mps 741 mmHg 62%
    17:00 +12°C° 0 mm 3 mps 741 mmHg 64%
    18:00 +11°C° 0 mm 3 mps 741 mmHg 67%
    19:00 +10°C° 0 mm 3 mps 741 mmHg 70%
    20:00 +9°C° 0 mm 3 mps 742 mmHg 73%
    21:00 +9°C° 0 mm 3 mps 742 mmHg 74%
    22:00 +8°C° 0 mm 2 mps 742 mmHg 76%
    23:00 +8°C° 0 mm 2 mps 742 mmHg 78%

    Day after tomorrow, 22 October, Monday

    Time Temperature Precipitation Wind Pressure Humidity
    00:00 +7°C° 0 mm 2 mps 742 mmHg 79%
    01:00 +7°C° 0 mm 2 mps 742 mmHg 80%
    02:00 +7°C° 0 mm 2 mps 742 mmHg 82%
    03:00 +6°C° 0 mm 2 mps 742 mmHg 82%
    04:00 +6°C° 0 mm 2 mps 742 mmHg 83%
    05:00 +6°C° 0 mm 2 mps 742 mmHg 84%
    06:00 +6°C° 0 mm 2 mps 742 mmHg 82%
    07:00 +6°C° 0 mm 2 mps 742 mmHg 80%
    08:00 +6°C° 0 mm 2 mps 742 mmHg 78%
    09:00 +8°C° 0 mm 2 mps 742 mmHg 71%
    10:00 +9°C° 0 mm 2 mps 742 mmHg 64%
    11:00 +12°C° 0 mm 2 mps 742 mmHg 56%
    12:00 +13°C° 0 mm 2 mps 741 mmHg 53%
    13:00 +13°C° 0 mm 2 mps 741 mmHg 51%
    14:00 +14°C° 0 mm 2 mps 740 mmHg 48%
    15:00 +13°C° 0 mm 2 mps 740 mmHg 51%
    16:00 +12°C° 0 mm 1 mps 740 mmHg 54%
    17:00 +11°C° 0 mm 1 mps 739 mmHg 57%
    18:00 +11°C° 0 mm 1 mps 739 mmHg 59%
    19:00 +10°C° 0 mm 1 mps 739 mmHg 62%
    20:00 +9°C° 0 mm 1 mps 739 mmHg 64%
    21:00 +9°C° 0 mm 1 mps 739 mmHg 66%
    22:00 +8°C° 0 mm 1 mps 739 mmHg 68%
    23:00 +8°C° 0 mm 1 mps 739 mmHg 69%

    23 October, Tuesday

    Time Temperature Precipitation Wind Pressure Humidity
    00:00 +7°C° 0 mm 1 mps 739 mmHg 71%
    01:00 +7°C° 0 mm 1 mps 739 mmHg 72%
    02:00 +7°C° 0 mm 1 mps 739 mmHg 74%
    03:00 +6°C° 0 mm 1 mps 739 mmHg 75%
    04:00 +6°C° 0 mm 1 mps 738 mmHg 77%
    05:00 +6°C° 0 mm 1 mps 738 mmHg 79%
    06:00 +5°C° 0 mm 2 mps 738 mmHg 79%
    07:00 +5°C° 0 mm 2 mps 739 mmHg 79%
    08:00 +5°C° 0 mm 2 mps 739 mmHg 78%
    09:00 +7°C° 0 mm 2 mps 739 mmHg 71%
    10:00 +9°C° 0 mm 3 mps 739 mmHg 64%
    11:00 +10°C° 0 mm 3 mps 738 mmHg 57%
    12:00 +11°C° 0 mm 4 mps 738 mmHg 54%
    13:00 +11°C° 0 mm 4 mps 737 mmHg 52%
    14:00 +12°C° 0 mm 4 mps 737 mmHg 50%
    15:00 +11°C° 0 mm 4 mps 737 mmHg 54%
    16:00 +10°C° 0 mm 3 mps 737 mmHg 58%
    17:00 +9°C° 0 mm 3 mps 736 mmHg 62%
    18:00 +8°C° 0 mm 3 mps 736 mmHg 67%
    19:00 +8°C° 0 mm 3 mps 736 mmHg 72%
    20:00 +7°C° 0 mm 3 mps 736 mmHg 77%
    21:00 +5°C° 0 mm 3 mps 736 mmHg 81%
    22:00 +5°C° 0 mm 3 mps 735 mmHg 84%
    23:00 +4°C° 0 mm 3 mps 734 mmHg 87%

    24 October, Wednesday

    Time Temperature Precipitation Wind Pressure Humidity
    00:00 +4°C° 0 mm 3 mps 733 mmHg 87%
    01:00 +3°C° 0 mm 3 mps 732 mmHg 87%
    02:00 +3°C° 0 mm 3 mps 731 mmHg 86%
    03:00 +4°C° 0 mm 4 mps 730 mmHg 85%
    04:00 +4°C° 0 mm 4 mps 729 mmHg 83%
    05:00 +3°C° 0 mm 5 mps 728 mmHg 82%
    06:00 +4°C° 0.5 mm 6 mps 727 mmHg 79%
    07:00 +4°C° 0.5 mm 6 mps 726 mmHg 76%
    08:00 +5°C° 0.5 mm 7 mps 725 mmHg 73%
    09:00 +6°C° 0.4 mm 8 mps 725 mmHg 70%
    10:00 +7°C° 0.4 mm 8 mps 724 mmHg 67%
    11:00 +8°C° 0.4 mm 9 mps 724 mmHg 64%
    12:00 +8°C° 0.2 mm 9 mps 724 mmHg 63%
    13:00 +9°C° 0.2 mm 10 mps 724 mmHg 62%
    14:00 +9°C° 0.2 mm 10 mps 723 mmHg 61%
    15:00 +8°C° 0.3 mm 9 mps 724 mmHg 63%
    16:00 +7°C° 0.3 mm 8 mps 724 mmHg 65%
    17:00 +8°C° 0.3 mm 7 mps 724 mmHg 67%
    18:00 +6°C° 0.2 mm 7 mps 725 mmHg 66%
    19:00 +5°C° 0.2 mm 7 mps 725 mmHg 65%
    20:00 +4°C° 0.2 mm 7 mps 726 mmHg 64%
    21:00 +3°C° 0 mm 7 mps 726 mmHg 65%
    22:00 +3°C° 0 mm 6 mps 727 mmHg 67%
    23:00 +2°C° 0 mm 6 mps 727 mmHg 68%

    25 October, Thursday

    Time Temperature Precipitation Wind Pressure Humidity
    00:00 +2°C° 0 mm 6 mps 727 mmHg 69%
    01:00 +1°C° 0 mm 6 mps 728 mmHg 70%
    02:00 0°C° 0 mm 7 mps 728 mmHg 71%
    03:00 0°C° 0 mm 7 mps 728 mmHg 72%
    04:00 -1°C° 0 mm 7 mps 729 mmHg 72%
    05:00 -1°C° 0 mm 7 mps 729 mmHg 73%
    06:00 -1°C° 0 mm 7 mps 729 mmHg 72%
    07:00 -1°C° 0 mm 8 mps 730 mmHg 72%
    08:00 -1°C° 0 mm 8 mps 730 mmHg 71%
    09:00 +1°C° 0 mm 8 mps 730 mmHg 64%
    10:00 +2°C° 0 mm 8 mps 731 mmHg 58%
    11:00 +5°C° 0 mm 8 mps 731 mmHg 52%
    12:00 +5°C° 0 mm 8 mps 731 mmHg 50%
    13:00 +6°C° 0 mm 8 mps 730 mmHg 47%
    14:00 +6°C° 0 mm 7 mps 730 mmHg 45%
    15:00 +7°C° 0.2 mm 6 mps 729 mmHg 51%
    16:00 +6°C° 0.2 mm 5 mps 729 mmHg 57%
    17:00 +6°C° 0.2 mm 4 mps 728 mmHg 63%
    18:00 +6°C° 0.4 mm 5 mps 728 mmHg 66%
    19:00 +6°C° 0.4 mm 7 mps 728 mmHg 70%
    20:00 +6°C° 0.4 mm 8 mps 728 mmHg 73%
    21:00 +6°C° 0.1 mm 8 mps 728 mmHg 74%
    22:00 +6°C° 0.1 mm 8 mps 728 mmHg 76%
    23:00 +6°C° 0.1 mm 8 mps 728 mmHg 78%
    Show more